Date String (YYYY-MM-DD hh:mm:ss) UTC,Instrument flags,absolute air pressure of the measurement (hPa),sample flow rate (lpm),inlet stack bypass flow (lpm),air temperature of the measurement (°C),ambient temperature measured by the external sensor (°C),aerosol sample conditioner tube jacket temperature (°C),OPC LED temperature (°C),internal box temperature (°C),relative humidity of the measurement (%),span deviation,mass concentration of particles derived from Lorenz-Mie calculation of OPC scattering (μg/m³),mass concentration of particles derived from Lorenz-Mie calculation of OPC scattering (μg/m³),mass concentration of particles derived from Lorenz-Mie calculation of OPC scattering (μg/m³)
DateTimeUTC,F1_M11,P_M11,Q1_M11,Q2_M11,T1_M11,T2_M11,T3_M11,T4_M11,T5_M11,U1_M11,ZSPAN_M11,X2_M11,X0_M11,X1_M11
2024-03-01 13:00:00,SystemResetWarning,0821.7,5.01,000.00,020.4,019.6,000.0,028.8,022.1,10.5,0000.0,0003.14,0008.87,0001.48
2024-03-01 13:01:00,SystemResetWarning,0821.8,5.00,000.00,020.4,019.6,000.0,028.8,022.1,10.7,0000.0,0003.10,0008.60,0001.49
2024-03-01 13:02:00,SystemResetWarning,0821.8,5.00,000.00,020.4,019.6,000.0,028.8,022.1,10.9,0000.0,0003.12,0008.65,0001.48
2024-03-01 13:03:00,SystemResetWarning,0821.6,4.99,000.00,020.4,019.6,000.0,028.8,022.1,10.9,0000.0,0003.10,0008.59,0001.47
2024-03-01 13:04:00,SystemResetWarning,0821.6,5.00,000.00,020.4,019.6,000.0,028.7,022.1,10.7,0000.0,0003.12,0008.84,0001.46
2024-03-01 13:05:00,SystemResetWarning,0821.4,4.99,000.00,020.4,019.6,000.0,028.7,022.1,10.8,0000.0,0003.03,0008.48,0001.45
2024-03-01 13:06:00,SystemResetWarning,0821.3,5.00,000.00,020.4,019.6,000.0,028.7,022.1,10.7,0000.0,0002.99,0007.62,0001.46
2024-03-01 13:07:00,SystemResetWarning,0821.4,5.00,000.00,020.4,019.6,000.0,028.7,022.0,10.7,0000.0,0003.06,0008.07,0001.45
2024-03-01 13:08:00,SystemResetWarning,0821.4,5.01,000.00,020.4,019.6,000.0,028.7,022.0,10.8,0000.0,0003.09,0008.15,0001.48
2024-03-01 13:09:00,SystemResetWarning,0821.3,5.01,000.00,020.4,019.6,000.0,028.7,022.0,10.9,0000.0,0003.01,0008.10,0001.47
2024-03-01 13:10:00,SystemResetWarning,0821.3,5.00,000.00,020.4,019.6,000.0,028.7,022.0,10.7,0000.0,0002.96,0008.43,0001.45
2024-03-01 13:11:00,SystemResetWarning,0821.3,5.01,000.00,020.3,019.6,000.0,028.7,022.0,10.8,0000.0,0002.96,0008.36,0001.44
2024-03-01 13:12:00,SystemResetWarning,0821.8,4.99,000.00,020.3,019.6,000.0,028.7,022.0,11.0,0000.0,0003.01,0008.44,0001.43
2024-03-01 13:13:00,SystemResetWarning,0821.6,4.99,000.00,020.3,019.6,000.0,028.7,022.0,10.9,0000.0,0003.02,0008.48,0001.41
2024-03-01 13:14:00,SystemResetWarning,0821.5,5.00,000.00,020.3,019.6,000.0,028.6,022.0,10.8,0000.0,0002.97,0008.38,0001.40
2024-03-01 13:15:00,SystemResetWarning,0821.4,5.01,000.00,020.3,019.5,000.0,028.6,022.0,10.8,0000.0,0002.98,0008.34,0001.41
2024-03-01 13:16:00,SystemResetWarning,0821.4,5.01,000.00,020.3,019.5,000.0,028.6,022.0,10.7,0000.0,0003.04,0008.40,0001.41
2024-03-01 13:17:00,SystemResetWarning,0821.3,5.01,000.00,020.3,019.5,000.0,028.6,022.0,10.7,0000.0,0003.03,0008.79,0001.40
2024-03-01 13:18:00,SystemResetWarning,0821.3,4.99,000.00,020.3,019.5,000.0,028.6,022.0,10.7,0000.0,0002.99,0008.32,0001.40
2024-03-01 13:19:00,SystemResetWarning,0821.1,4.99,000.00,020.3,019.5,000.0,028.6,021.9,10.8,0000.0,0002.91,0008.10,0001.39
2024-03-01 13:20:00,SystemResetWarning,0821.2,5.00,000.00,020.3,019.5,000.0,028.6,021.9,10.9,0000.0,0002.88,0007.86,0001.40
2024-03-01 13:21:00,SystemResetWarning,0821.2,5.02,000.00,020.3,019.5,000.0,028.6,021.9,10.9,0000.0,0002.91,0007.17,0001.40
2024-03-01 13:22:00,SystemResetWarning,0821.1,5.01,000.00,020.3,019.5,000.0,028.6,021.9,10.5,0000.0,0002.94,0007.30,0001.40
2024-03-01 13:23:00,SystemResetWarning,0821.3,4.99,000.00,020.3,019.5,000.0,028.6,021.9,10.4,0000.0,0002.92,0007.30,0001.40
2024-03-01 13:24:00,SystemResetWarning,0821.3,4.99,000.00,020.2,019.5,000.0,028.6,021.9,10.8,0000.0,0002.84,0006.90,0001.39
2024-03-01 13:25:00,SystemResetWarning,0821.1,4.99,000.00,020.2,019.5,000.0,028.6,021.9,10.7,0000.0,0002.89,0007.10,0001.39
2024-03-01 13:26:00,SystemResetWarning,0821.2,5.02,000.00,020.2,019.5,000.0,028.6,021.9,10.7,0000.0,0002.92,0007.85,0001.37
2024-03-01 13:27:00,SystemResetWarning,0821.2,5.01,000.00,020.2,019.5,000.0,028.6,021.9,10.6,0000.0,0002.88,0007.85,0001.37
2024-03-01 13:28:00,SystemResetWarning,0821.1,5.01,000.00,020.2,019.4,000.0,028.5,021.9,10.8,0000.0,0002.88,0007.47,0001.37
2024-03-01 13:29:00,SystemResetWarning,0821.2,4.99,000.00,020.2,019.4,000.0,028.5,021.9,10.8,0000.0,0002.85,0007.38,0001.38
2024-03-01 13:30:00,SystemResetWarning,0821.1,5.00,000.00,020.2,019.4,000.0,028.5,021.9,11.0,0000.0,0002.85,0007.38,0001.37
2024-03-01 13:31:00,SystemResetWarning,0821.2,4.99,000.00,020.2,019.4,000.0,028.5,021.9,11.0,0000.0,0002.85,0007.37,0001.38
2024-03-01 13:32:00,SystemResetWarning,0821.2,5.01,000.00,020.2,019.4,000.0,028.5,021.9,10.9,0000.0,0002.86,0007.37,0001.38
2024-03-01 13:33:00,SystemResetWarning,0821.2,5.01,000.00,020.2,019.4,000.0,028.5,021.9,10.8,0000.0,0002.91,0007.66,0001.38
2024-03-01 13:34:00,SystemResetWarning,0821.2,5.01,000.00,020.2,019.4,000.0,028.5,021.9,10.8,0000.0,0002.90,0007.55,0001.39
2024-03-01 13:35:00,SystemResetWarning,0821.2,5.00,000.00,020.2,019.4,000.0,028.5,021.9,10.8,0000.0,0002.90,0008.34,0001.40
2024-03-01 13:36:00,SystemResetWarning,0821.1,4.99,000.00,020.2,019.4,000.0,028.5,021.8,10.7,0000.0,0002.92,0009.00,0001.40
2024-03-01 13:37:00,SystemResetWarning,0821.2,4.99,000.00,020.2,019.4,000.0,028.5,021.8,10.8,0000.0,0002.89,0008.58,0001.41
2024-03-01 13:38:00,SystemResetWarning,0821.3,5.00,000.00,020.1,019.3,000.0,028.5,021.8,10.8,0000.0,0002.88,0008.27,0001.40
2024-03-01 13:39:00,SystemResetWarning,0821.4,5.01,000.00,020.1,019.3,000.0,028.5,021.8,10.9,0000.0,0002.93,0008.41,0001.41
2024-03-01 13:40:00,SystemResetWarning,0821.4,5.01,000.00,020.1,019.3,000.0,028.5,021.8,10.9,0000.0,0002.96,0008.67,0001.40
2024-03-01 13:41:00,SystemResetWarning,0821.6,5.00,000.00,020.1,019.3,000.0,028.5,021.8,10.9,0000.0,0002.97,0008.76,0001.39
2024-03-01 13:42:00,SystemResetWarning,0821.9,4.99,000.00,020.1,019.3,000.0,028.4,021.8,11.1,0000.0,0002.97,0009.33,0001.38
2024-03-01 13:43:00,SystemResetWarning,0821.8,5.00,000.00,020.1,019.3,000.0,028.4,021.8,11.1,0000.0,0002.97,0009.95,0001.38
2024-03-01 13:44:00,SystemResetWarning,0821.4,5.01,000.00,020.1,019.3,000.0,028.4,021.8,11.1,0000.0,0002.89,0010.25,0001.37
2024-03-01 13:45:00,SystemResetWarning,0821.7,5.01,000.00,020.1,019.3,000.0,028.4,021.8,11.2,0000.0,0002.90,0010.89,0001.37
2024-03-01 13:46:00,SystemResetWarning,0821.6,4.99,000.00,020.1,019.3,000.0,028.4,021.7,11.2,0000.0,0002.98,0010.85,0001.39
2024-03-01 13:47:00,SystemResetWarning,0821.8,4.99,000.00,020.1,019.3,000.0,028.4,021.8,11.2,0000.0,0002.99,0010.39,0001.39
2024-03-01 13:48:00,SystemResetWarning,0821.7,5.00,000.00,020.1,019.3,000.0,028.4,021.7,11.2,0000.0,0003.00,0010.32,0001.40
2024-03-01 13:49:00,SystemResetWarning,0821.8,5.01,000.00,020.1,019.3,000.0,028.4,021.8,11.2,0000.0,0003.01,0010.57,0001.40
2024-03-01 13:50:00,SystemResetWarning,0822.0,5.01,000.00,020.1,019.3,000.0,028.4,021.8,11.2,0000.0,0003.02,0010.67,0001.39
2024-03-01 13:51:00,SystemResetWarning,0822.0,5.00,000.00,020.1,019.3,000.0,028.4,021.7,11.2,0000.0,0002.98,0010.55,0001.39
2024-03-01 13:52:00,SystemResetWarning,0822.0,4.98,000.00,020.0,019.3,000.0,028.4,021.7,11.1,0000.0,0003.00,0010.82,0001.39
2024-03-01 13:53:00,SystemResetWarning,0822.0,5.00,000.00,020.0,019.3,000.0,028.3,021.7,11.1,0000.0,0002.96,0010.77,0001.37
2024-03-01 13:54:00,SystemResetWarning,0822.0,5.02,000.00,020.0,019.3,000.0,028.3,021.7,11.2,0000.0,0002.97,0010.21,0001.37
2024-03-01 13:55:00,SystemResetWarning,0822.1,5.01,000.00,020.0,019.3,000.0,028.3,021.7,11.1,0000.0,0003.00,0010.08,0001.38
2024-03-01 13:56:00,SystemResetWarning,0822.1,4.99,000.00,020.0,019.3,000.0,028.3,021.7,11.2,0000.0,0002.97,0010.89,0001.38
2024-03-01 13:57:00,SystemResetWarning,0822.1,4.99,000.00,020.0,019.3,000.0,028.3,021.7,11.3,0000.0,0002.93,0010.49,0001.36
2024-03-01 13:58:00,SystemResetWarning,0822.1,4.99,000.00,020.0,019.3,000.0,028.3,021.7,11.3,0000.0,0002.87,0010.13,0001.37
2024-03-01 13:59:00,SystemResetWarning,0822.1,5.00,000.00,020.0,019.3,000.0,028.3,021.7,11.4,0000.0,0002.91,0010.15,0001.38
